User: anonymous   Login
Location: Unspecified
(0.0000°N, 0.0000°E)
Time: 20:32:27
(UTC+02:00)
Language:

BREEZE-M DEB (TANK) - Orbit

View from above orbital plane
View from above orbital plane
View from above satellite
View from above satellite

Ground track
Ground track

The orbit data is extracted from the following two-line orbital elements,

1 33374U 08044B   17231.14878107  .00000340  00000-0  94648-4 0  9998
2 33374  49.4425 239.1617 5431690 122.5570 301.6155  4.87109561157071
Epoch (UTC): 19 August 2017 03:34:14
Eccentricity: 0.5431690
inclination: 49.4425°
perigee height: 337 km
apogee height: 16306 km
right ascension of ascending node: 239.1617°
argument of perigee: 122.5570°
revolutions per day: 4.87109561
mean anomaly at epoch: 301.6155°
orbit number at epoch: 15707

The dashed part of the orbit path shows where the satellite is in the earth's shadow,  

DLR